RH
37 38 42 42 49 49 52 53 55 61 54 48 43 46 48 47 50 51 48 46 44 51 52 57 60 60 59 58 54 52 44 40 41 43 45 46 49 53 54 52 53 58 64 70
31 34 36 42 43 49 54 48 54 52 51 47 39 45 50 57 57 48 49 51 45 47 50 53 58 61 59 55 52 55 55 45 41 44 45 46 50 51 50 51 52 53 56 61
25 28 36 39 41 49 52 49 52 52 51 52 43 39 44 47 45 49 49 51 50 44 45 50 52 60 61 54 53 51 58 57 48 45 46 47 48 50 54 55 55 54 55 57
21 29 31 32 36 44 47 51 48 52 53 52 47 46 42 49 50 54 52 55 56 53 49 47 50 56 60 53 55 51 55 59 55 50 48 44 44 45 48 49 49 53 57 56
18 25 29 28 34 38 43 51 44 39 48 47 48 41 46 46 51 51 49 52 52 53 53 44 46 52 51 52 51 51 53 57 58 58 52 48 47 46 49 51 53 59 62 61
17 22 25 28 31 29 42 51 42 41 49 51 49 45 48 51 54 52 46 43 46 46 41 38 43 50 57 54 51 46 51 52 57 61 57 52 51 53 48 48 53 64 64 67
16 17 21 25 26 28 37 44 48 45 55 55 57 56 53 52 50 46 45 44 44 45 46 35 37 43 53 57 56 53 51 52 52 62 63 56 55 58 53 45 46 58 67 68
18 17 18 22 26 33 35 39 47 48 55 56 58 54 50 48 46 46 45 47 42 36 43 39 33 37 43 52 55 52 52 54 57 56 62 60 58 59 58 49 46 46 55 68
15 15 15 19 24 27 33 31 35 44 45 54 62 56 51 47 45 47 45 48 42 41 42 43 40 33 40 49 55 50 49 54 60 58 59 59 59 61 58 55 50 47 48 52
13 14 12 19 22 27 31 36 35 44 54 57 64 64 54 45 44 47 45 45 37 41 41 34 34 34 36 43 50 50 48 51 58 59 60 59 57 58 60 58 54 48 45 48
14 13 14 19 22 29 37 39 44 44 52 54 61 61 55 46 44 44 40 38 39 46 42 39 34 32 34 41 46 47 51 52 54 58 57 58 59 55 53 56 57 55 47 46
15 14 16 21 27 28 36 41 41 42 48 54 54 54 51 48 42 41 39 40 41 39 40 33 30 27 31 37 42 43 45 51 53 51 49 52 56 55 50 48 48 49 50 49
16 16 15 22 28 30 32 34 41 44 47 51 55 56 49 50 44 41 38 38 40 39 39 38 30 29 29 31 33 39 43 48 52 54 54 56 58 53 47 47 49 52 49 50
18 19 13 21 28 26 31 37 34 42 40 44 42 46 47 44 38 36 37 38 40 38 48 36 29 29 29 30 28 28 33 42 52 58 59 62 58 52 47 49 53 54 54 52
22 19 17 24 24 23 24 24 33 31 31 36 34 38 40 40 35 34 40 44 39 39 48 46 33 30 28 28 28 30 31 37 44 56 62 66 68 58 49 53 58 67 74 69
22 21 19 18 22 21 20 21 21 26 29 36 40 34 35 35 35 37 38 40 44 47 48 49 43 38 33 30 26 29 34 35 42 48 56 65 70 63 57 58 68 75 75 80
22 23 22 18 21 20 22 28 31 35 41 38 40 31 32 39 40 35 36 38 49 54 50 44 38 35 34 33 29 28 33 36 39 45 53 61 63 61 52 69 60 68 71 78
23 24 24 23 18 25 35 35 35 35 40 44 39 33 37 36 37 41 41 43 43 46 47 41 37 33 30 27 26 31 37 40 39 41 50 58 62 63 64 69 56 60 68 76
28 27 28 22 21 30 35 36 39 35 46 48 46 44 49 44 40 44 46 46 42 39 39 40 37 34 29 25 27 30 37 43 42 41 47 52 58 62 60 65 55 57 69 75
29 27 23 27 23 32 40 40 38 36 50 48 56 55 55 53 53 53 48 49 50 51 46 40 36 31 28 26 29 31 39 43 45 46 46 50 56 60 62 62 53 49 65 70
32 32 32 35 41 38 37 38 39 48 48 43 48 53 55 56 55 56 53 51 45 39 39 38 39 36 31 30 33 35 39 44 44 47 48 50 53 58 64 62 53 43 54 68
44 43 41 45 49 47 40 41 47 46 46 50 48 45 44 43 42 41 40 38 34 33 33 34 38 38 39 35 33 36 38 42 45 46 49 50 54 57 62 56 51 42 42 60
53 45 50 53 56 49 47 47 47 48 47 51 50 49 46 44 43 39 35 34 34 32 30 29 29 32 38 42 44 44 44 44 49 52 53 54 57 61 61 65 52 44 40 42
53 46 48 52 54 52 49 48 51 52 52 52 50 48 45 45 41 39 34 32 27 26 24 25 24 24 27 33 39 44 48 45 48 53 61 61 63 64 63 63 57 44 39 39
55 52 54 54 52 50 48 51 50 51 49 49 49 45 43 40 37 35 32 29 26 24 22 22 22 22 23 25 28 35 40 50 50 52 65 77 80 79 71 70 63 37 38 43
62 59 57 59 54 52 53 49 49 50 51 50 50 46 41 40 36 33 28 25 22 21 20 20 20 21 20 21 25 28 31 36 40 49 61 70 84 89 92 95 87 61 52 51